When you browse on this site, cookies collect data to enhance your experience and personalize the content and advertising you see.
Visit our Privacy Policy to learn more. By continuing to use the site, you agree to this use of cookies and data.

Météo par heure à Tykhonivka

Ce jour, 3 Août, Lundi

Heure Température Précipitation Vent Pression Humidité
00:00 +14°C° 0 mm 1 m/s 741 mmHg 87%
01:00 +14°C° 0 mm 1 m/s 742 mmHg 88%
02:00 +13°C° 0 mm 1 m/s 742 mmHg 88%
03:00 +13°C° 0 mm 1 m/s 742 mmHg 88%
04:00 +12°C° 0 mm 0 m/s 742 mmHg 88%
05:00 +12°C° 0 mm 0 m/s 742 mmHg 88%
06:00 +14°C° 0 mm 0 m/s 742 mmHg 81%
07:00 +16°C° 0 mm 0 m/s 743 mmHg 73%
08:00 +19°C° 0 mm 0 m/s 743 mmHg 66%
09:00 +22°C° 0 mm 1 m/s 743 mmHg 61%
10:00 +23°C° 0 mm 1 m/s 743 mmHg 55%
11:00 +24°C° 0 mm 2 m/s 743 mmHg 50%
12:00 +24°C° 0 mm 2 m/s 743 mmHg 50%
13:00 +24°C° 0 mm 2 m/s 743 mmHg 49%
14:00 +24°C° 0 mm 2 m/s 742 mmHg 49%
15:00 +25°C° 0 mm 2 m/s 742 mmHg 49%
16:00 +25°C° 0 mm 2 m/s 742 mmHg 49%
17:00 +25°C° 0 mm 2 m/s 742 mmHg 48%
18:00 +23°C° 0 mm 2 m/s 742 mmHg 54%
19:00 +21°C° 0 mm 2 m/s 741 mmHg 59%
20:00 +19°C° 0 mm 2 m/s 741 mmHg 64%
21:00 +18°C° 0 mm 2 m/s 741 mmHg 67%
22:00 +17°C° 0 mm 3 m/s 741 mmHg 69%
23:00 +17°C° 0 mm 3 m/s 741 mmHg 72%

Demain, 4 Août, Mardi

Heure Température Précipitation Vent Pression Humidité
00:00 +16°C° 0 mm 3 m/s 742 mmHg 73%
01:00 +16°C° 0 mm 3 m/s 742 mmHg 75%
02:00 +16°C° 0 mm 3 m/s 742 mmHg 76%
03:00 +16°C° 0 mm 3 m/s 742 mmHg 77%
04:00 +14°C° 0 mm 3 m/s 742 mmHg 78%
05:00 +15°C° 0 mm 2 m/s 741 mmHg 78%
06:00 +17°C° 0 mm 3 m/s 742 mmHg 73%
07:00 +19°C° 0 mm 3 m/s 742 mmHg 67%
08:00 +21°C° 0 mm 4 m/s 742 mmHg 61%
09:00 +23°C° 0 mm 4 m/s 742 mmHg 56%
10:00 +25°C° 0 mm 4 m/s 742 mmHg 51%
11:00 +27°C° 0 mm 4 m/s 742 mmHg 45%
12:00 +28°C° 0 mm 4 m/s 742 mmHg 43%
13:00 +28°C° 0 mm 4 m/s 742 mmHg 41%
14:00 +29°C° 0 mm 4 m/s 742 mmHg 40%
15:00 +29°C° 0 mm 4 m/s 742 mmHg 40%
16:00 +29°C° 0 mm 3 m/s 741 mmHg 41%
17:00 +28°C° 0 mm 3 m/s 741 mmHg 42%
18:00 +26°C° 0 mm 3 m/s 741 mmHg 47%
19:00 +24°C° 0 mm 3 m/s 741 mmHg 52%
20:00 +21°C° 0 mm 2 m/s 741 mmHg 57%
21:00 +21°C° 0 mm 3 m/s 741 mmHg 57%
22:00 +20°C° 0 mm 3 m/s 741 mmHg 57%
23:00 +19°C° 0 mm 3 m/s 741 mmHg 57%

Après-demain, 5 Août, Mercredi

Heure Température Précipitation Vent Pression Humidité
00:00 +19°C° 0 mm 3 m/s 741 mmHg 59%
01:00 +18°C° 0 mm 3 m/s 742 mmHg 61%
02:00 +18°C° 0 mm 3 m/s 742 mmHg 63%
03:00 +17°C° 0 mm 3 m/s 742 mmHg 64%
04:00 +17°C° 0 mm 2 m/s 742 mmHg 66%
05:00 +17°C° 0 mm 2 m/s 742 mmHg 67%
06:00 +19°C° 0 mm 2 m/s 742 mmHg 63%
07:00 +21°C° 0 mm 2 m/s 742 mmHg 59%
08:00 +24°C° 0 mm 2 m/s 743 mmHg 55%
09:00 +26°C° 0 mm 3 m/s 743 mmHg 50%
10:00 +27°C° 0 mm 3 m/s 743 mmHg 45%
11:00 +29°C° 0 mm 3 m/s 743 mmHg 40%
12:00 +29°C° 0 mm 3 m/s 743 mmHg 39%
13:00 +30°C° 0 mm 4 m/s 743 mmHg 37%
14:00 +30°C° 0 mm 4 m/s 743 mmHg 36%
15:00 +29°C° 0 mm 4 m/s 743 mmHg 38%
16:00 +29°C° 0 mm 4 m/s 743 mmHg 40%
17:00 +28°C° 0 mm 4 m/s 743 mmHg 42%
18:00 +26°C° 0 mm 4 m/s 743 mmHg 47%
19:00 +24°C° 0 mm 3 m/s 743 mmHg 52%
20:00 +21°C° 0 mm 3 m/s 743 mmHg 57%
21:00 +21°C° 0 mm 3 m/s 743 mmHg 60%
22:00 +20°C° 0 mm 3 m/s 744 mmHg 63%
23:00 +19°C° 0 mm 3 m/s 744 mmHg 66%

6 Août, Jeudi

Heure Température Précipitation Vent Pression Humidité
00:00 +18°C° 0 mm 3 m/s 744 mmHg 68%
01:00 +18°C° 0 mm 3 m/s 744 mmHg 71%
02:00 +17°C° 0 mm 2 m/s 744 mmHg 73%
03:00 +17°C° 0 mm 2 m/s 744 mmHg 77%
04:00 +17°C° 0 mm 2 m/s 744 mmHg 80%
05:00 +16°C° 0 mm 2 m/s 744 mmHg 83%
06:00 +18°C° 0 mm 3 m/s 744 mmHg 77%
07:00 +20°C° 0 mm 3 m/s 745 mmHg 71%
08:00 +22°C° 0 mm 3 m/s 745 mmHg 65%
09:00 +25°C° 0 mm 4 m/s 745 mmHg 60%
10:00 +26°C° 0 mm 4 m/s 745 mmHg 54%
11:00 +28°C° 0 mm 5 m/s 745 mmHg 48%
12:00 +29°C° 0 mm 5 m/s 745 mmHg 47%
13:00 +29°C° 0 mm 5 m/s 745 mmHg 45%
14:00 +30°C° 0 mm 5 m/s 745 mmHg 44%
15:00 +29°C° 0 mm 5 m/s 744 mmHg 45%
16:00 +29°C° 0 mm 5 m/s 744 mmHg 46%
17:00 +29°C° 0 mm 5 m/s 744 mmHg 48%
18:00 +27°C° 0 mm 4 m/s 744 mmHg 54%
19:00 +25°C° 0 mm 4 m/s 744 mmHg 60%
20:00 +22°C° 0 mm 3 m/s 744 mmHg 67%
21:00 +21°C° 0 mm 3 m/s 745 mmHg 70%
22:00 +21°C° 0 mm 3 m/s 745 mmHg 74%
23:00 +20°C° 0 mm 3 m/s 745 mmHg 77%

7 Août, Vendredi

Heure Température Précipitation Vent Pression Humidité
00:00 +20°C° 0 mm 3 m/s 745 mmHg 79%
01:00 +19°C° 0 mm 3 m/s 745 mmHg 82%
02:00 +19°C° 0 mm 3 m/s 745 mmHg 84%
03:00 +18°C° 0 mm 3 m/s 745 mmHg 85%
04:00 +18°C° 0 mm 3 m/s 745 mmHg 86%
05:00 +18°C° 0 mm 3 m/s 745 mmHg 87%
06:00 +19°C° 0 mm 3 m/s 745 mmHg 81%
07:00 +21°C° 0 mm 4 m/s 745 mmHg 75%
08:00 +23°C° 0 mm 4 m/s 745 mmHg 68%
09:00 +26°C° 0 mm 4 m/s 745 mmHg 62%
10:00 +27°C° 0 mm 4 m/s 745 mmHg 57%
11:00 +29°C° 0 mm 5 m/s 745 mmHg 51%
12:00 +29°C° 0 mm 5 m/s 745 mmHg 48%
13:00 +30°C° 0 mm 5 m/s 745 mmHg 45%
14:00 +30°C° 0 mm 5 m/s 744 mmHg 43%
15:00 +30°C° 0 mm 5 m/s 744 mmHg 44%
16:00 +29°C° 0 mm 5 m/s 744 mmHg 45%
17:00 +29°C° 0 mm 5 m/s 743 mmHg 47%
18:00 +27°C° 0 mm 4 m/s 743 mmHg 54%
19:00 +25°C° 0 mm 4 m/s 743 mmHg 61%
20:00 +22°C° 0 mm 3 m/s 743 mmHg 68%
21:00 +22°C° 0 mm 3 m/s 743 mmHg 70%
22:00 +21°C° 0 mm 3 m/s 743 mmHg 73%
23:00 +20°C° 0 mm 3 m/s 743 mmHg 75%

8 Août, Samedi

Heure Température Précipitation Vent Pression Humidité
00:00 +20°C° 0 mm 3 m/s 743 mmHg 78%
01:00 +19°C° 0 mm 3 m/s 743 mmHg 81%
02:00 +18°C° 0 mm 3 m/s 743 mmHg 83%
03:00 +18°C° 0 mm 3 m/s 742 mmHg 85%
04:00 +18°C° 0 mm 3 m/s 742 mmHg 87%
05:00 +17°C° 0 mm 3 m/s 742 mmHg 89%
06:00 +19°C° 0 mm 3 m/s 742 mmHg 83%
07:00 +21°C° 0 mm 3 m/s 742 mmHg 77%
08:00 +23°C° 0 mm 4 m/s 742 mmHg 71%
09:00 +26°C° 0 mm 4 m/s 742 mmHg 63%
10:00 +27°C° 0 mm 4 m/s 742 mmHg 56%
11:00 +29°C° 0 mm 4 m/s 742 mmHg 49%
12:00 +29°C° 0.1 mm 4 m/s 741 mmHg 48%
13:00 +29°C° 0.1 mm 4 m/s 741 mmHg 48%
14:00 +30°C° 0.1 mm 5 m/s 740 mmHg 48%
15:00 +29°C° 0.1 mm 4 m/s 740 mmHg 50%
16:00 +29°C° 0.1 mm 4 m/s 740 mmHg 52%
17:00 +28°C° 0.1 mm 4 m/s 739 mmHg 54%
18:00 +26°C° 0.1 mm 4 m/s 739 mmHg 62%
19:00 +24°C° 0.1 mm 3 m/s 739 mmHg 70%
20:00 +22°C° 0.1 mm 3 m/s 739 mmHg 79%
21:00 +21°C° 0 mm 3 m/s 739 mmHg 82%
22:00 +20°C° 0 mm 3 m/s 739 mmHg 86%
23:00 +19°C° 0 mm 3 m/s 739 mmHg 89%
Voir plus